Location: Newark
(7.0858°N, 171.3717°E)
Time: 07:36:08
(UTC+00:00)

X-37B - Visible Passes

Search period start: 23 September 2020 00:00
Search period end: 03 October 2020 00:00
Orbit: 386 x 387 km, 45.0° (Epoch: 18 September)

Date Brightness Start Highest point End Pass type
(mag) Time Alt. Az. Time Alt. Az. Time Alt. Az.
26 Sep 0.8 07:43:23 10° SW 07:46:08 63° SSW 07:46:08 63° SSW visible
26 Sep 3.7 17:36:40 10° NNE 17:37:55 12° NE 17:39:12 10° ENE visible
27 Sep 1.8 06:45:21 10° S 06:48:02 25° SE 06:50:43 10° ENE visible
27 Sep 4.0 08:23:13 10° WNW 08:23:39 11° WNW 08:23:39 11° WNW visible
28 Sep 2.3 07:23:07 10° WSW 07:25:57 30° NW 07:28:45 10° NNE visible
28 Sep 2.4 17:15:09 14° NNW 17:17:24 30° NE 17:20:14 10° ESE visible
29 Sep 1.8 17:52:40 10° WNW 17:55:19 26° SW 17:58:02 10° S visible
30 Sep 3.6 07:04:05 10° WNW 07:05:25 12° NW 07:06:44 10° NNW visible
30 Sep 1.7 16:57:48 40° SE 16:57:48 40° SE 16:59:58 10° SE visible
